Regional Weather Roundup
Issued by NWS

Home | Current Version | Previous Version | Text Only | Print | Product List | Glossary Off
Versions: 1 2 3 4 5 6 7 8 9 10 11 12 13 14 15 16 17 18 19 20 21 22 23 24 25 26 27

000
ASUS45 KCYS 220810
RWRWY

WYOMING REGIONAL WEATHER ROUNDUP
NATIONAL WEATHER SERVICE CHEYENNE WY
200 AM MDT THU JUN 22 2017

NOTE:  "FAIR" INDICATES FEW OR NO CLOUDS BELOW 12,000 FEET
WITH NO SIGNIFICANT WEATHER AND/OR OBSTRUCTIONS TO VISIBILITY.

WYZ001-220900-
YELLOWSTONE NATIONAL PARK

CITY           SKY/WX    TMP DP  RH WIND       PRES   REMARKS
LK YELLOWSTONE   N/A     44  39  82 CALM      30.17R
W YELLOWSTONE  NOT AVBL

$$
WYZ002>013-054>058-071-098>099-220900-
NORTHERN WYOMING

CITY           SKY/WX    TMP DP  RH WIND       PRES   REMARKS
JACKSON        FAIR      54  37  54 CALM      30.06S
CODY           FAIR      64  29  26 NW12      30.02R
GREYBULL       FAIR      73  35  25 NW24      29.84R
WORLAND        FAIR      68  48  48 NW9       29.87R
SHERIDAN       FAIR      63  48  58 NW13      29.91R
BUFFALO        FAIR      63  49  60 N9        29.94R
GILLETTE       MOCLDY    62  48  60 CALM      29.85R
NEWCASTLE      FAIR      68  45  42 E3        29.81R

$$
WYZ014>020-022>026-101>103-220900-
CENTRAL WYOMING

CITY           SKY/WX    TMP DP  RH WIND       PRES   REMARKS
BIG PINEY      FAIR      51  40  65 CALM      30.10S
PINEDALE       FAIR      48  43  81 W6        30.12R
DUBOIS         FAIR      54  34  47 NW13      30.07S
LANDER         FAIR      64  35  34 SE6       29.96R
RIVERTON       FAIR      69  42  37 N15G23    29.94S
CASPER         FAIR      56  50  80 W7        29.91S
DOUGLAS        FAIR      61  50  67 W12       29.86R

$$
WYZ021-027>030-104>119-220900-
SOUTHERN WYOMING

CITY           SKY/WX    TMP DP  RH WIND       PRES   REMARKS
EVANSTON       FAIR      65  44  46 SW5       30.13F
KEMMERER         N/A     57  37  47 CALM      30.13S
FORT BRIDGER   FAIR      65  40  39 W13       30.14F
ROCK SPRINGS   FAIR      61  42  49 SW7       30.09R
DIXON          FAIR      56  41  56 S3        30.10S
RAWLINS        FAIR      62  38  40 SW15      30.04F
SARATOGA       FAIR      64  36  34 SW8       30.07S
LARAMIE        FAIR      59  35  40 SW14      30.05F
CHEYENNE       FAIR      71  37  28 W13       29.95F
TORRINGTON     FAIR      68  51  54 VRB5      29.74F
PINE BLUFFS    FAIR      68  39  34 S8        29.87F

$$




USA.gov is the U.S. government's official web portal to all federal, state and local government web resources and services.